TimeCDT,TemperatureF,Dew PointF,Humidity,Sea Level PressureIn,VisibilityMPH,Wind Direction,Wind SpeedMPH,Gust SpeedMPH,PrecipitationIn,Events,Conditions,WindDirDegrees,DateUTC
12:15 AM,9.5,-3.3,56,30.07,10.0,WNW,12.7,-,N/A,,Clear,290,2013-03-20 05:15:00
12:35 AM,9.3,-3.3,57,30.07,10.0,WNW,15.0,20.7,N/A,,Clear,300,2013-03-20 05:35:00
12:55 AM,8.8,-3.5,58,30.07,10.0,WNW,11.5,-,N/A,,Clear,300,2013-03-20 05:55:00
1:15 AM,8.6,-3.1,59,30.06,10.0,WNW,13.8,20.7,N/A,,Clear,300,2013-03-20 06:15:00
1:35 AM,8.6,-3.1,59,30.07,10.0,WNW,15.0,-,N/A,,Clear,300,2013-03-20 06:35:00
1:55 AM,8.4,-3.1,60,30.07,10.0,WNW,16.1,24.2,N/A,,Clear,300,2013-03-20 06:55:00
2:15 AM,8.1,-3.5,59,30.07,10.0,WNW,15.0,20.7,N/A,,Clear,300,2013-03-20 07:15:00
2:35 AM,7.7,-3.5,60,30.07,10.0,WNW,15.0,19.6,N/A,,Clear,300,2013-03-20 07:35:00
2:55 AM,7.7,-3.8,59,30.07,10.0,WNW,11.5,20.7,N/A,,Mostly Cloudy,300,2013-03-20 07:55:00
3:15 AM,7.5,-3.3,61,30.07,10.0,WNW,16.1,-,N/A,,Overcast,300,2013-03-20 08:15:00
3:35 AM,7.5,-3.5,61,30.08,10.0,WNW,15.0,20.7,N/A,,Overcast,300,2013-03-20 08:35:00
3:55 AM,7.3,-3.5,61,30.08,10.0,WNW,12.7,-,N/A,,Overcast,290,2013-03-20 08:55:00
4:15 AM,7.2,-3.5,62,30.08,10.0,WNW,11.5,18.4,N/A,,Overcast,300,2013-03-20 09:15:00
4:35 AM,6.8,-3.5,63,30.08,10.0,WNW,13.8,-,N/A,,Overcast,300,2013-03-20 09:35:00
4:55 AM,6.8,-3.3,63,30.09,10.0,WNW,16.1,20.7,N/A,,Overcast,300,2013-03-20 09:55:00
5:15 AM,6.8,-3.1,64,30.09,10.0,WNW,13.8,21.9,N/A,,Overcast,300,2013-03-20 10:15:00
5:35 AM,6.4,-3.3,64,30.10,10.0,West,12.7,-,N/A,,Mostly Cloudy,280,2013-03-20 10:35:00
5:55 AM,6.3,-3.3,65,30.10,10.0,West,8.1,16.1,N/A,,Scattered Clouds,280,2013-03-20 10:55:00
6:15 AM,5.9,-3.1,67,30.11,10.0,West,8.1,-,N/A,,Scattered Clouds,280,2013-03-20 11:15:00
6:35 AM,5.9,-2.9,67,30.11,10.0,West,5.8,-,N/A,,Scattered Clouds,260,2013-03-20 11:35:00
7:15 AM,5.9,-3.3,66,30.11,10.0,West,8.1,-,N/A,,Overcast,280,2013-03-20 12:15:00
7:35 AM,5.9,-3.1,67,30.11,10.0,West,12.7,-,N/A,,Overcast,280,2013-03-20 12:35:00
7:55 AM,6.3,-3.1,65,30.12,10.0,WNW,10.4,20.7,N/A,,Overcast,290,2013-03-20 12:55:00
8:15 AM,6.4,-2.7,66,30.12,10.0,WNW,12.7,-,N/A,,Overcast,290,2013-03-20 13:15:00
8:35 AM,6.8,-2.6,66,30.11,10.0,WNW,11.5,17.3,N/A,,Mostly Cloudy,290,2013-03-20 13:35:00
8:55 AM,6.8,-2.2,67,30.11,10.0,WNW,10.4,-,N/A,,Mostly Cloudy,300,2013-03-20 13:55:00
9:15 AM,6.8,-2.2,67,30.11,10.0,WNW,12.7,17.3,N/A,,Scattered Clouds,290,2013-03-20 14:15:00
9:35 AM,7.5,-2.2,65,30.10,10.0,WNW,10.4,16.1,N/A,,Mostly Cloudy,290,2013-03-20 14:35:00
9:55 AM,8.2,-2.0,63,30.10,10.0,West,10.4,-,N/A,,Overcast,280,2013-03-20 14:55:00
10:15 AM,9.0,-1.5,63,30.10,10.0,West,12.7,19.6,N/A,,Overcast,280,2013-03-20 15:15:00
10:35 AM,9.5,-1.3,62,30.10,10.0,WNW,12.7,-,N/A,,Overcast,290,2013-03-20 15:35:00
10:55 AM,11.1,-0.6,59,30.10,10.0,NW,11.5,16.1,N/A,,Overcast,310,2013-03-20 15:55:00
11:15 AM,11.8,-0.4,58,30.10,10.0,WNW,13.8,-,N/A,,Mostly Cloudy,300,2013-03-20 16:15:00
11:35 AM,12.9,0.3,57,30.09,10.0,NW,18.4,23.0,N/A,,Mostly Cloudy,310,2013-03-20 16:35:00
11:55 AM,14.0,0.3,55,30.09,10.0,NW,11.5,19.6,N/A,,Mostly Cloudy,310,2013-03-20 16:55:00
12:15 PM,14.9,1.6,56,30.08,10.0,NW,13.8,-,N/A,,Overcast,320,2013-03-20 17:15:00
12:35 PM,16.0,1.8,54,30.08,10.0,NNW,16.1,21.9,N/A,,Overcast,330,2013-03-20 17:35:00
12:55 PM,16.3,1.8,53,30.08,10.0,NNW,15.0,-,N/A,,Overcast,330,2013-03-20 17:55:00
1:15 PM,16.9,0.9,50,30.08,10.0,NNW,8.1,-,N/A,,Mostly Cloudy,330,2013-03-20 18:15:00
1:35 PM,18.1,1.2,48,30.07,10.0,North,10.4,16.1,N/A,,Mostly Cloudy,350,2013-03-20 18:35:00
1:55 PM,18.3,3.0,51,30.07,10.0,NW,12.7,-,N/A,,Overcast,320,2013-03-20 18:55:00
2:15 PM,18.7,2.3,49,30.07,10.0,NNW,11.5,19.6,N/A,,Overcast,340,2013-03-20 19:15:00
2:35 PM,18.5,2.5,50,30.07,10.0,NW,12.7,-,N/A,,Overcast,320,2013-03-20 19:35:00
2:55 PM,19.0,2.7,49,30.07,10.0,NW,13.8,17.3,N/A,,Overcast,320,2013-03-20 19:55:00
3:15 PM,18.9,3.9,52,30.06,10.0,NNW,12.7,-,N/A,,Overcast,330,2013-03-20 20:15:00
3:35 PM,19.8,3.4,49,30.07,10.0,North,10.4,-,N/A,,Overcast,350,2013-03-20 20:35:00
3:55 PM,19.6,3.9,51,30.07,10.0,NNW,12.7,-,N/A,,Overcast,330,2013-03-20 20:55:00
4:15 PM,19.2,5.4,55,30.07,10.0,NW,15.0,-,N/A,,Overcast,320,2013-03-20 21:15:00
4:35 PM,20.8,3.9,48,30.07,10.0,North,11.5,16.1,N/A,,Overcast,350,2013-03-20 21:35:00
4:55 PM,19.4,5.2,54,30.08,10.0,NNW,12.7,-,N/A,,Overcast,330,2013-03-20 21:55:00
5:15 PM,20.1,3.2,48,30.08,10.0,North,10.4,17.3,N/A,,Overcast,350,2013-03-20 22:15:00
5:35 PM,19.9,3.4,49,30.09,10.0,NNW,10.4,20.7,N/A,,Overcast,340,2013-03-20 22:35:00
5:55 PM,19.6,2.5,48,30.10,10.0,North,12.7,16.1,N/A,,Overcast,350,2013-03-20 22:55:00
6:15 PM,19.4,2.7,48,30.10,10.0,NNW,11.5,-,N/A,,Overcast,340,2013-03-20 23:15:00
6:35 PM,19.6,3.2,49,30.11,10.0,North,8.1,-,N/A,,Overcast,10,2013-03-20 23:35:00
6:55 PM,19.2,3.2,50,30.11,10.0,North,9.2,-,N/A,,Overcast,360,2013-03-20 23:55:00
7:15 PM,18.3,3.2,52,30.11,10.0,North,4.6,-,N/A,,Overcast,350,2013-03-21 00:15:00
7:35 PM,17.4,3.7,55,30.11,10.0,North,8.1,-,N/A,,Overcast,360,2013-03-21 00:35:00
7:55 PM,17.2,2.3,52,30.11,10.0,North,4.6,-,N/A,,Mostly Cloudy,360,2013-03-21 00:55:00
8:15 PM,16.5,2.5,54,30.11,10.0,North,4.6,-,N/A,,Mostly Cloudy,350,2013-03-21 01:15:00
8:35 PM,16.9,3.4,55,30.11,10.0,North,3.5,-,N/A,,Overcast,360,2013-03-21 01:35:00
8:55 PM,16.7,3.2,55,30.11,10.0,NNE,3.5,-,N/A,,Overcast,20,2013-03-21 01:55:00
9:15 PM,16.2,2.8,56,30.11,10.0,NNE,4.6,-,N/A,,Overcast,20,2013-03-21 02:15:00
9:35 PM,15.4,2.7,57,30.11,10.0,North,4.6,-,N/A,,Mostly Cloudy,10,2013-03-21 02:35:00
9:55 PM,15.3,2.5,57,30.12,10.0,North,4.6,-,N/A,,Mostly Cloudy,10,2013-03-21 02:55:00
10:15 PM,14.7,2.3,58,30.12,10.0,North,4.6,-,N/A,,Mostly Cloudy,360,2013-03-21 03:15:00
10:35 PM,14.9,2.8,59,30.12,10.0,North,4.6,-,N/A,,Overcast,350,2013-03-21 03:35:00
10:55 PM,14.7,3.2,60,30.12,10.0,NNW,4.6,-,N/A,,Overcast,340,2013-03-21 03:55:00
11:15 PM,13.5,3.4,64,30.12,10.0,NNW,5.8,-,N/A,,Overcast,330,2013-03-21 04:15:00
11:35 PM,12.6,3.9,68,30.12,10.0,NW,5.8,-,N/A,,Overcast,320,2013-03-21 04:35:00
11:55 PM,12.2,3.7,69,30.12,10.0,NW,5.8,-,N/A,,Overcast,320,2013-03-21 04:55:00